EHI
9 18 29 32 35 45 53 57 56 56 57 57 56 55 54 51 47 38 30 24 20 16 11 7 5 4 4 7 6 2 1 1 1 1 2 3 2 1 1 2 2 2 3
14 22 30 32 36 43 50 54 55 55 56 56 55 53 52 50 45 38 30 25 20 16 12 7 6 5 4 6 6 3 2 2 3 3 3 3 3 3 2 2 2 2 3
20 25 29 32 37 42 45 47 51 53 54 54 51 48 46 44 40 35 29 25 22 18 14 9 7 6 6 5 5 4 3 3 4 3 2 2 2 3 3 2 1 2 2
28 27 29 33 38 42 42 43 46 50 51 50 47 44 41 38 36 32 28 24 21 19 17 12 9 8 8 8 6 4 3 3 3 2 1 0 1 2 3 2 1 1 1
33 31 31 35 39 41 42 42 44 47 47 46 44 42 39 37 35 32 27 23 19 18 18 16 13 11 10 10 9 6 4 3 3 1 0 0 1 2 3 3 2 1 0
33 33 34 37 39 41 42 41 42 43 44 44 44 42 39 37 34 30 24 20 18 18 18 17 15 13 12 11 10 7 4 4 3 1 0 0 0 2 5 6 4 2 1
34 34 37 40 42 43 42 40 39 39 40 42 42 41 38 35 31 25 21 19 19 19 18 17 14 13 11 9 7 6 4 4 3 1 0 0 2 5 7 8 6 4 4
37 37 37 39 41 42 41 39 37 37 38 40 40 39 36 31 26 21 18 18 18 18 17 15 12 11 10 8 5 4 4 3 1 0 0 0 3 6 6 6 6 6 5
36 34 33 33 33 33 33 35 36 37 37 37 36 34 30 25 20 17 16 15 15 15 14 13 12 11 10 8 5 2 2 2 1 0 0 1 2 3 3 3 4 5 5
29 27 26 26 25 24 25 28 33 35 33 30 26 24 21 19 16 15 14 12 11 10 10 12 11 10 9 7 4 2 1 1 0 0 0 1 2 2 2 2 3 5 7
19 19 20 20 19 18 19 22 27 30 27 21 17 16 15 14 13 12 11 9 8 7 8 9 8 7 6 5 3 1 0 0 0 0 0 1 2 2 2 2 2 5 8
12 11 13 13 12 13 15 18 21 24 22 19 17 16 16 13 10 10 9 6 5 6 6 6 5 4 4 3 1 1 0 0 0 0 0 0 1 1 1 2 2 5 8
8 8 8 8 8 9 13 15 16 17 19 20 20 18 17 14 10 8 7 5 3 4 5 6 5 4 2 1 0 0 0 0 0 0 0 0 0 0 0 1 4 7 9
8 8 7 6 7 8 11 12 11 12 16 19 20 17 16 13 9 6 4 3 2 2 4 6 4 2 2 1 0 0 0 0 0 0 0 0 0 0 0 1 4 7 8
6 6 5 5 7 8 8 8 7 8 12 16 17 16 15 12 8 5 3 2 1 1 2 3 2 1 1 0 0 0 0 0 0 0 0 0 0 0 0 1 3 4 5
5 4 4 4 6 6 5 4 4 5 8 12 14 15 15 13 8 4 3 1 0 0 0 0 0 0 0 0 0 0 0 0 0 0 0 0 0 0 0 1 3 3 3
6 5 4 4 4 4 4 3 3 4 6 9 13 15 16 14 9 4 2 1 0 0 0 0 0 0 0 0 0 0 1 0 0 0 0 0 0 0 0 2 3 3 3
9 7 6 5 4 3 3 3 3 3 4 8 12 15 16 14 8 3 1 1 1 1 0 0 0 0 0 0 0 0 0 0 0 0 0 0 0 0 0 1 3 3 2
10 9 8 7 5 3 3 3 3 3 3 6 11 15 15 11 6 2 0 1 1 1 0 0 0 0 0 0 0 0 0 0 0 0 0 0 0 0 0 1 2 3 1
9 9 9 7 5 3 3 4 4 4 3 4 8 11 10 8 5 3 1 0 0 0 0 0 0 0 0 0 0 0 0 0 0 0 0 0 0 0 0 0 1 1 1
8 9 8 7 5 4 4 4 4 4 4 4 4 5 4 3 3 3 1 0 0 0 0 0 0 1 1 0 0 0 0 0 0 0 0 0 0 0 0 0 0 0 0
8 9 9 8 7 6 4 4 4 4 5 4 3 3 2 1 1 1 1 1 1 1 1 0 0 1 2 1 0 0 0 0 0 0 0 0 0 0 0 0 0 0 0
7 8 8 7 7 6 4 3 3 4 5 4 3 3 3 2 1 0 0 0 1 3 2 1 1 2 2 1 0 0 0 0 0 0 0 0 0 0 0 0 0 0 0
4 5 5 5 5 6 6 5 4 5 5 3 2 2 2 2 1 0 0 0 1 2 3 2 2 2 2 1 0 0 0 0 0 0 0 0 0 0 0 0 0 0 0
3 3 3 3 3 5 6 5 5 4 3 2 1 1 1 1 1 0 0 0 0 2 3 3 1 1 2 2 1 0 0 0 0 0 0 0 0 0 0 0 0 0 0
3 2 2 2 2 3 4 5 4 4 2 1 0 0 0 0 0 0 0 0 1 2 3 2 1 0 1 2 1 0 0 0 0 0 0 0 0 0 0 0 0 0 0
Wind_Speed
4 7 12 12 13 13 13 13 13 13 14 14 14 14 14 15 15 15 15 14 13 13 13 12 11 11 10 10 10 10 9 9 8 8 8 8 8 8 8 8 8 6 8
7 9 13 13 12 12 13 13 13 13 13 13 13 13 13 14 14 14 14 13 13 12 12 12 11 10 10 10 9 9 9 8 8 8 7 7 7 7 7 8 8 5 8
9 9 11 13 12 12 12 12 13 13 13 13 13 13 12 13 13 13 13 12 12 12 11 11 11 10 9 9 9 8 8 8 8 8 7 4 4 7 7 8 8 9 9
9 8 9 13 12 12 11 11 12 12 13 13 13 12 12 12 12 12 12 12 11 11 11 11 10 10 9 8 8 8 8 7 7 7 4 3 3 6 7 8 8 9 9
8 7 9 13 12 12 12 11 11 11 11 12 12 11 11 11 10 11 11 11 11 11 10 10 10 9 9 8 8 7 7 7 6 5 3 3 3 6 7 8 9 9 9
7 6 8 12 12 11 11 11 10 10 10 10 11 10 10 10 9 10 11 11 10 10 10 10 9 8 8 8 7 7 6 6 5 3 2 3 3 6 7 8 9 10 10
6 5 6 10 11 10 10 10 10 9 9 8 9 9 9 8 8 8 10 10 10 10 9 9 9 8 7 7 7 6 6 6 4 3 2 3 3 6 7 7 8 9 9
6 5 5 9 10 10 10 9 9 8 8 7 8 8 8 8 8 8 8 9 10 9 9 9 8 8 7 6 6 6 6 6 4 3 3 3 4 5 6 7 7 8 9
5 5 3 4 6 7 7 8 8 7 7 7 6 6 7 7 7 8 8 8 9 9 9 9 8 8 7 7 6 6 6 6 4 3 4 3 5 6 6 6 7 7 8
4 3 3 2 3 3 3 6 7 7 6 6 6 6 6 6 6 7 7 7 8 9 9 9 8 8 7 7 6 6 7 5 3 3 3 4 7 7 6 7 8 8 8
3 2 2 2 2 2 2 4 5 6 6 5 4 5 4 2 2 3 5 7 8 8 8 8 8 7 6 6 6 6 5 2 3 3 3 6 8 8 8 7 8 8 8
3 2 1 2 2 2 2 2 1 2 2 2 1 2 1 1 1 2 4 7 7 8 7 7 7 6 4 2 3 3 1 2 3 3 3 7 8 8 8 8 9 9 9
3 3 2 2 2 2 1 1 1 1 1 1 2 1 1 1 0 1 1 2 2 3 2 2 2 1 2 1 1 1 2 2 2 2 4 7 8 9 8 8 9 10 10
3 3 2 2 2 2 1 1 1 1 1 1 2 2 2 1 1 1 1 1 1 1 1 1 1 2 2 2 3 3 3 3 3 2 4 7 8 8 8 8 9 9 9
2 2 2 2 3 2 2 1 1 2 2 2 2 2 3 2 2 2 1 0 1 1 1 2 2 2 2 3 3 3 4 4 4 3 3 7 8 9 9 9 9 9 9
2 2 1 2 2 2 2 1 1 1 1 1 2 2 3 2 2 1 1 1 1 1 1 2 2 2 2 2 3 3 3 3 3 3 3 4 7 8 8 9 9 9 9
2 2 1 1 2 2 2 2 1 1 1 1 2 2 2 2 2 2 1 1 1 1 2 1 1 1 2 2 3 3 2 3 3 3 3 3 3 6 8 8 8 9 9
2 2 1 1 1 2 2 2 1 1 1 1 1 1 2 2 3 3 2 2 1 1 2 2 1 2 2 2 2 2 2 2 3 3 3 3 3 3 5 7 7 7 8
2 2 2 2 2 2 2 1 0 0 1 1 1 1 2 2 3 2 2 2 2 2 2 2 2 2 2 2 3 3 2 2 3 3 3 4 3 3 3 5 7 7 8
1 2 2 2 2 1 1 1 1 1 1 1 1 2 2 2 2 2 2 2 2 2 1 2 2 2 2 2 3 2 2 2 2 3 4 3 3 3 3 4 4 5 8
0 1 2 2 1 1 1 1 1 1 1 2 1 2 2 2 3 2 2 2 2 2 3 3 2 2 2 1 1 1 1 2 2 2 2 2 2 3 3 4 3 3 4
1 0 0 1 1 2 2 2 2 1 1 2 2 1 2 3 3 3 3 2 2 2 2 2 2 2 1 1 2 1 1 1 2 2 2 2 3 2 3 4 4 4 4
1 1 1 1 1 2 2 1 0 0 0 1 1 1 2 2 3 3 3 2 2 3 3 3 3 4 2 1 2 2 2 2 2 1 2 2 2 2 3 3 4 5 5
2 2 1 2 2 2 2 2 2 2 2 2 2 2 2 2 2 2 2 3 3 2 3 3 3 3 4 3 2 2 2 2 2 1 2 2 2 3 4 3 4 4 4
3 2 2 2 2 2 2 2 2 1 2 1 1 1 1 1 2 2 2 2 2 2 2 2 2 3 3 3 3 2 2 1 2 2 2 2 2 2 3 3 3 3 4
3 3 1 1 2 1 1 1 2 2 2 1 1 1 1 1 1 1 1 1 2 2 2 3 3 3 3 3 3 2 2 2 2 3 3 2 2 2 2 3 3 3 3
Wind_Direction
163 156 155 148 144 138 133 129 127 127 126 126 128 132 136 140 145 148 150 151 152 152 151 149 148 146 145 143 145 147 148 150 155 158 161 166 169 170 169 169 172 172 167
147 150 152 149 146 141 136 133 130 128 128 129 129 132 136 141 146 149 151 154 155 155 155 153 152 150 148 147 147 148 149 151 154 161 169 169 172 175 176 180 180 170 169
137 146 150 149 147 144 141 138 135 134 134 134 134 136 139 143 148 152 154 157 159 160 160 159 157 157 154 154 153 152 154 155 159 165 166 164 177 186 187 189 186 177 173
135 142 150 150 149 146 143 141 140 140 139 139 140 142 145 148 152 156 160 163 165 165 164 164 163 162 159 159 161 161 162 166 166 166 155 166 187 196 197 193 190 185 181
132 138 152 151 151 150 148 145 145 145 146 146 146 149 151 153 157 162 166 170 171 171 170 170 169 167 165 165 167 169 170 172 171 163 159 179 199 207 203 197 194 193 190
126 134 152 152 155 153 150 148 148 148 150 152 153 154 157 161 165 170 172 175 175 176 177 176 175 174 175 174 174 177 177 179 168 158 172 190 202 213 207 200 199 196 193
127 132 152 154 157 156 153 151 151 153 153 155 158 162 166 169 172 174 180 180 181 183 183 183 182 184 187 187 185 186 187 185 164 167 186 198 210 217 212 205 202 199 195
128 131 147 157 158 159 158 156 155 156 156 158 160 166 170 173 178 182 188 189 189 191 193 193 193 192 195 199 202 200 196 194 180 181 195 204 212 220 216 208 202 200 200
121 125 132 151 157 158 161 159 155 154 156 160 164 171 179 186 190 192 192 199 200 199 200 199 203 203 203 206 211 209 206 202 178 183 202 205 213 219 219 211 202 200 200
105 113 119 118 124 143 163 169 163 163 165 166 170 175 180 188 198 204 203 207 208 207 205 203 203 206 207 209 213 214 211 196 186 192 205 214 216 217 218 214 206 203 203
117 109 119 121 125 138 162 176 168 170 170 171 178 186 182 189 210 217 220 219 216 212 209 206 202 203 207 211 215 214 203 184 190 203 210 218 218 217 219 216 209 208 208
159 163 144 156 146 148 171 151 141 162 162 161 157 186 173 144 234 237 240 233 227 219 215 215 211 201 197 202 222 215 198 198 202 211 220 221 220 218 219 219 213 209 210
168 170 182 182 166 155 154 147 151 155 155 159 165 175 157 147 198 270 265 261 256 234 220 218 205 182 163 182 209 209 208 212 213 219 227 227 222 220 220 221 215 211 211
161 181 191 185 175 175 165 166 170 175 177 184 196 191 173 182 197 201 219 242 230 215 186 175 179 182 183 201 211 219 219 217 220 220 229 231 228 224 223 221 216 215 216
169 199 213 191 185 183 173 190 180 190 200 203 200 202 190 191 207 209 213 221 236 214 203 196 195 193 197 212 217 215 224 225 228 225 233 234 233 231 230 225 220 218 217
219 225 217 192 195 179 182 189 188 199 206 208 208 211 198 191 190 195 203 202 217 211 201 202 209 201 204 207 224 222 221 225 230 227 229 237 236 234 233 229 223 222 221
241 241 210 197 174 177 191 192 183 199 186 211 226 215 200 189 183 180 194 214 213 191 182 179 207 190 206 207 222 228 221 222 223 228 231 236 237 235 235 232 226 223 226
223 223 211 220 175 197 204 191 171 202 203 222 228 208 200 188 177 176 188 217 208 169 163 172 197 208 216 214 218 230 223 216 223 225 230 235 234 237 238 236 230 227 228
210 201 183 201 191 201 210 197 199 230 235 235 222 217 211 195 187 180 196 215 188 175 181 189 182 201 220 224 220 220 220 215 226 226 223 226 225 229 234 239 235 234 235
201 175 182 197 197 180 168 83 48 302 270 255 229 220 213 203 195 184 194 206 180 174 190 190 193 198 210 223 230 234 232 228 225 227 230 221 217 225 231 234 233 241 240
60 138 174 171 188 147 130 161 188 244 262 264 247 233 222 211 203 192 198 188 182 187 203 201 195 204 217 186 175 282 288 243 232 227 226 215 223 232 232 231 230 232 240
359 313 241 198 194 182 193 192 194 206 238 246 255 249 228 216 211 206 198 192 187 188 204 206 194 192 220 180 166 143 310 308 269 243 226 227 236 237 239 235 231 230 235
328 257 256 234 220 212 197 172 342 51 334 276 267 258 250 231 224 210 209 200 199 191 205 211 199 186 201 207 177 166 173 228 282 284 238 228 238 237 247 242 235 234 232
309 305 284 269 247 226 201 186 190 218 234 248 251 256 261 238 234 220 211 206 213 209 211 212 197 194 191 207 195 203 193 177 192 281 294 260 250 242 244 242 240 237 232
324 322 302 279 270 250 221 197 185 246 247 253 245 256 275 271 251 234 216 202 211 213 217 211 194 192 196 202 193 185 195 203 202 206 264 287 287 261 250 243 240 242 237
343 343 314 285 276 267 236 191 183 224 230 218 243 266 291 292 279 257 233 218 224 220 218 219 210 202 206 203 198 187 179 180 194 197 227 252 266 274 266 254 242 241 240